Date String (YYYY-MM-DD hh:mm:ss) UTC,Instrument flags,Ambient pressure (hPa),Sample flow (lpm),Bypass flow (lpm),Sample temperature (°C),Ambient temperature (°C),ASC tube jacket temperature (°C),LED temperature (°C),Box temperature (°C),Sample RH (%),Span deviation,Mass concentration (μg/m³),Mass concentration (μg/m³),Mass concentration (μg/m³)
DateTimeUTC,F1_M11,P_M11,Q1_M11,Q2_M11,T1_M11,T2_M11,T3_M11,T4_M11,T5_M11,U1_M11,ZSPAN_M11,X0_M11,X2_M11,X1_M11
2021-09-04 10:00:00,,0830.3,5.00,0.00,30.3,29.5,00.0,39.5,32.1,31.1,0000.4,0014.86,0009.66,0009.13
2021-09-04 10:01:00,,0830.3,5.00,0.00,30.3,29.5,00.0,39.5,32.1,31.0,0000.0,0015.28,0009.68,0009.12
2021-09-04 10:02:00,,0830.2,5.00,0.00,30.4,29.5,00.0,39.5,32.1,31.2,-000.3,0014.85,0009.69,0009.10
2021-09-04 10:03:00,,0830.2,5.00,0.00,30.4,29.5,00.0,39.5,32.1,31.2,-000.5,0014.17,0009.67,0009.09
2021-09-04 10:04:00,,0830.3,5.01,0.00,30.4,29.5,00.0,39.5,32.1,31.2,-000.7,0014.00,0009.63,0009.07
2021-09-04 10:05:00,,0830.3,5.00,0.00,30.4,29.6,00.0,39.5,32.1,31.2,-000.7,0013.94,0009.61,0009.04
2021-09-04 10:06:00,,0830.4,4.99,0.00,30.4,29.6,00.0,39.5,32.1,31.1,-000.9,0013.77,0009.57,0009.03
2021-09-04 10:07:00,,0830.4,5.01,0.00,30.4,29.5,00.0,39.5,32.1,30.9,-000.8,0013.83,0009.53,0009.02
2021-09-04 10:08:00,,0830.4,5.00,0.00,30.4,29.6,00.0,39.5,32.1,30.8,-000.5,0013.96,0009.56,0009.04
2021-09-04 10:09:00,,0830.4,4.99,0.00,30.4,29.6,00.0,39.5,32.1,30.7,-000.4,0014.03,0009.58,0009.05
2021-09-04 10:10:00,,0830.4,5.00,0.00,30.4,29.6,00.0,39.5,32.1,31.0,-000.3,0014.07,0009.61,0009.07
2021-09-04 10:11:00,,0830.5,5.01,0.00,30.4,29.6,00.0,39.5,32.1,31.1,-000.0,0014.14,0009.65,0009.10
2021-09-04 10:12:00,,0830.4,4.98,0.00,30.4,29.6,00.0,39.5,32.2,30.9,0000.0,0013.60,0009.62,0009.12
2021-09-04 10:13:00,,0830.4,5.00,0.00,30.4,29.6,00.0,39.6,32.2,30.8,0000.2,0013.54,0009.59,0009.11
2021-09-04 10:14:00,,0830.5,5.01,0.00,30.4,29.6,00.0,39.6,32.2,30.8,0000.5,0013.59,0009.63,0009.11
2021-09-04 10:15:00,,0830.4,5.00,0.00,30.4,29.6,00.0,39.6,32.1,30.7,0000.5,0013.64,0009.67,0009.12
2021-09-04 10:16:00,,0830.4,5.00,0.00,30.4,29.6,00.0,39.6,32.2,30.7,0000.3,0013.59,0009.65,0009.13
2021-09-04 10:17:00,,0830.4,4.99,0.00,30.4,29.6,00.0,39.6,32.2,30.7,0000.2,0013.54,0009.65,0009.15
2021-09-04 10:18:00,,0830.4,5.00,0.00,30.4,29.6,00.0,39.6,32.2,30.7,0000.5,0013.24,0009.61,0009.15
2021-09-04 10:19:00,,0830.5,5.01,0.00,30.4,29.6,00.0,39.6,32.2,30.6,0000.4,0013.28,0009.63,0009.13
2021-09-04 10:20:00,,0830.4,4.99,0.00,30.4,29.6,00.0,39.6,32.2,30.5,0000.3,0013.17,0009.61,0009.12
2021-09-04 10:21:00,,0830.4,4.99,0.00,30.4,29.6,00.0,39.6,32.2,30.5,0000.4,0013.00,0009.56,0009.09
2021-09-04 10:22:00,,0830.4,5.01,0.00,30.4,28.3,00.0,39.6,31.8,30.5,0000.2,0012.93,0009.53,0009.07
2021-09-04 10:23:00,,0830.4,5.00,0.00,30.2,26.6,00.0,39.5,31.4,30.7,0000.2,0012.87,0009.55,0009.07
2021-09-04 10:24:00,,0830.4,5.00,0.00,30.1,26.3,00.0,39.5,31.3,30.9,0000.4,0012.75,0009.56,0009.08
2021-09-04 10:25:00,,0830.4,5.00,0.00,30.0,26.7,00.0,39.4,31.3,31.0,0000.2,0012.74,0009.55,0009.09
2021-09-04 10:26:00,,0830.4,4.99,0.00,29.9,27.1,00.0,39.3,31.3,31.1,0000.1,0012.67,0009.52,0009.09
2021-09-04 10:27:00,,0830.4,4.99,0.00,29.9,27.5,00.0,39.3,31.4,31.3,0000.1,0012.74,0009.55,0009.10
2021-09-04 10:28:00,,0830.4,5.01,0.00,29.9,27.8,00.0,39.3,31.4,31.4,0000.3,0012.76,0009.55,0009.10
2021-09-04 10:29:00,,0830.4,4.99,0.00,29.9,28.1,00.0,39.2,31.5,31.2,0000.1,0012.81,0009.57,0009.09
2021-09-04 10:30:00,,0830.3,5.02,0.00,29.9,28.3,00.0,39.2,31.5,31.2,0000.0,0012.82,0009.60,0009.11
2021-09-04 10:31:00,,0830.3,4.99,0.00,29.9,28.4,00.0,39.2,31.6,31.2,-000.1,0013.27,0009.66,0009.14
2021-09-04 10:32:00,,0830.3,5.00,0.00,29.9,28.6,00.0,39.2,31.6,31.2,-000.3,0013.46,0009.73,0009.17
2021-09-04 10:33:00,,0830.3,5.00,0.00,29.9,28.7,00.0,39.2,31.7,31.1,-000.3,0013.57,0009.79,0009.20
2021-09-04 10:34:00,,0830.4,5.02,0.00,29.9,28.8,00.0,39.2,31.7,31.0,-000.6,0013.88,0009.81,0009.21
2021-09-04 10:35:00,,0830.4,5.00,0.00,30.0,28.8,00.0,39.2,31.7,31.0,-000.6,0013.94,0009.84,0009.23
2021-09-04 10:36:00,,0830.4,4.99,0.00,30.0,28.9,00.0,39.2,31.8,31.1,-000.6,0013.95,0009.88,0009.25
2021-09-04 10:37:00,,0830.4,5.00,0.00,30.0,28.9,00.0,39.2,31.8,31.1,-000.7,0014.01,0009.91,0009.27
2021-09-04 10:38:00,,0830.4,4.99,0.00,30.0,29.0,00.0,39.2,31.8,31.1,-000.7,0013.99,0009.90,0009.27
2021-09-04 10:39:00,,0830.4,5.00,0.00,30.0,29.0,00.0,39.2,31.8,31.1,-000.5,0014.08,0009.94,0009.27
2021-09-04 10:40:00,,0830.4,5.01,0.00,30.0,29.0,00.0,39.2,31.8,31.1,-000.2,0014.44,0010.02,0009.30
2021-09-04 10:41:00,,0830.4,5.00,0.00,30.0,29.0,00.0,39.2,31.7,31.1,0000.3,0014.48,0010.03,0009.32
2021-09-04 10:42:00,,0830.4,5.01,0.00,30.0,29.0,00.0,39.2,31.7,31.1,0000.7,0014.23,0010.04,0009.32
2021-09-04 10:43:00,,0830.4,4.99,0.00,30.0,28.9,00.0,39.2,31.7,31.3,0000.9,0014.38,0010.03,0009.32
2021-09-04 10:44:00,,0830.4,5.02,0.00,29.9,28.9,00.0,39.2,31.7,31.3,0000.8,0014.33,0009.99,0009.31
2021-09-04 10:45:00,,0830.4,5.01,0.00,29.9,28.9,00.0,39.2,31.6,31.3,0000.9,0013.99,0009.95,0009.31
2021-09-04 10:46:00,,0830.4,4.99,0.00,29.9,28.9,00.0,39.1,31.6,31.3,0000.9,0013.84,0009.92,0009.30
2021-09-04 10:47:00,,0830.4,5.00,0.00,29.9,28.9,00.0,39.1,31.5,31.4,0000.8,0014.00,0009.85,0009.29
2021-09-04 10:48:00,,0830.3,5.00,0.00,29.8,28.9,00.0,39.1,31.5,31.6,0000.7,0014.06,0009.85,0009.29
2021-09-04 10:49:00,,0830.4,5.00,0.00,29.8,28.9,00.0,39.1,31.5,31.6,0000.8,0014.32,0009.85,0009.30
2021-09-04 10:50:00,,0830.4,5.00,0.00,29.8,28.9,00.0,39.1,31.5,31.6,0000.6,0014.92,0009.89,0009.31
2021-09-04 10:51:00,,0830.4,5.00,0.00,29.8,28.9,00.0,39.1,31.5,31.6,0000.4,0014.67,0009.86,0009.31
2021-09-04 10:52:00,,0830.5,4.99,0.00,29.8,28.9,00.0,39.1,31.5,31.5,-000.2,0014.83,0009.85,0009.32
2021-09-04 10:53:00,,0830.6,5.02,0.00,29.8,28.9,00.0,39.1,31.5,31.5,-000.5,0014.84,0009.85,0009.33
2021-09-04 10:54:00,,0830.5,4.99,0.00,29.8,28.9,00.0,39.0,31.5,31.5,-000.5,0014.85,0009.84,0009.35
2021-09-04 10:55:00,,0830.5,5.00,0.00,29.8,29.0,00.0,39.0,31.5,31.4,-000.4,0015.03,0009.88,0009.38
2021-09-04 10:56:00,,0830.5,5.00,0.00,29.8,29.0,00.0,39.0,31.5,31.3,-000.2,0015.18,0009.94,0009.39
2021-09-04 10:57:00,,0830.5,5.00,0.00,29.8,29.0,00.0,39.0,31.6,31.4,-000.5,0015.32,0010.01,0009.43
2021-09-04 10:58:00,,0830.5,5.00,0.00,29.8,29.0,00.0,39.0,31.5,31.3,-000.9,0015.10,0010.10,0009.49
2021-09-04 10:59:00,,0830.5,4.99,0.00,29.8,28.9,00.0,39.0,31.5,31.3,-001.0,0015.22,0010.16,0009.54
